Madisonville, KY

2:26 AM CST on December 11, 2019 (GMT -0600)
Madisonville

Weather History for K2I0 - October, 2019

Change the Weather History Date:

Sunday, October 6, 2019

  Actual Average (KOWB) Record (KOWB)
Temperature  
Mean Temperature 70 °F -  
Max Temperature 81 °F 74 °F 92 °F (1946)
Min Temperature 59 °F 48 °F 30 °F (1980)
Cooling Degree Days 5    
Growing Degree Days 20 (Base 50)    
Moisture  
Dew Point 61 °F    
Average Humidity 74    
Maximum Humidity 100    
Minimum Humidity 47    
Precipitation  
Precipitation 0.58 in - - ()
Sea Level Pressure  
Sea Level Pressure 30.09 in    
Wind  
Wind Speed 6 mph ()    
Max Wind Speed 14 mph    
Max Gust Speed 18 mph    
Visibility 9.6 miles    
Events Rain    
Averages and records for this station are not official NWS values.
T = Trace of Precipitation, MM = Missing Value Source: Averaged Metar Reports

Daily Weather History Graph

Daily Weather History Graph

Search for Another Location

Airport or City:

Astronomy

Oct. 06, 2019 Rise Set
Actual Time 6:49 AM CDT 6:25 PM CDT
Civil Twilight 6:23 AM CDT 6:51 PM CDT
Nautical Twilight 5:52 AM CDT 7:21 PM CDT
Astronomical Twilight 5:22 AM CDT 7:52 PM CDT
Moon 2:55 PM CDT (10/6) No Moon Set
Length of Visible Light 12h 28m
Length of Day
11h 36m
First Quarter, 60% of the Moon is Illuminated
Oct 6
First Quarter
Oct 13
Full
Oct 21
Last Quarter
Oct 27
New
Nov 4
First Quarter

Hourly Weather History & Observations

Time (CDT) Temp. Heat Index Dew Point Humidity Pressure Visibility Wind Dir Wind Speed Gust Speed Precip Events Conditions
12:35 AM 72.5 °F - 50.9 °F 47% 29.97 in 10.0 mi South 5.8 mph - N/A   Clear
12:55 AM 71.8 °F - 52.5 °F 51% 29.96 in 10.0 mi South 4.6 mph - N/A   Clear
1:15 AM 71.1 °F - 53.2 °F 53% 29.98 in 10.0 mi NW 4.6 mph - N/A   Scattered Clouds
1:35 AM 70.2 °F - 53.6 °F 56% 29.98 in 10.0 mi Calm Calm - N/A   Clear
1:55 AM 68.5 °F - 54.1 °F 60% 30.00 in 10.0 mi NW 3.5 mph - N/A   Clear
2:15 AM 69.8 °F - 53.8 °F 57% 30.00 in 10.0 mi North 4.6 mph - N/A   Mostly Cloudy
2:55 AM 68.2 °F - 55.9 °F 65% 30.01 in 10.0 mi SE 3.5 mph - N/A   Overcast
3:15 AM 69.1 °F - 55.4 °F 62% 30.02 in 10.0 mi SSE 6.9 mph - N/A   Overcast
3:55 AM 67.8 °F - 55.2 °F 64% 30.02 in 10.0 mi Calm Calm - N/A   Mostly Cloudy
4:15 AM 66.9 °F - 55.4 °F 66% 30.04 in 10.0 mi Calm Calm - N/A   Mostly Cloudy
4:35 AM 66.2 °F - 56.3 °F 70% 30.04 in 10.0 mi Calm Calm - N/A   Scattered Clouds
4:55 AM 66.0 °F - 55.6 °F 69% 30.05 in 10.0 mi SSW 3.5 mph - N/A   Clear
5:15 AM 68.5 °F - 55.0 °F 62% 30.05 in 10.0 mi South 4.6 mph - N/A   Mostly Cloudy
5:35 AM 68.2 °F - 55.6 °F 64% 30.06 in 10.0 mi SSW 4.6 mph - N/A   Mostly Cloudy
5:55 AM 68.7 °F - 56.5 °F 65% 30.07 in 10.0 mi SSW 4.6 mph - N/A   Mostly Cloudy
6:15 AM 70.5 °F - 56.7 °F 61% 30.08 in 10.0 mi SSW 4.6 mph - N/A   Mostly Cloudy
6:35 AM 70.7 °F - 57.7 °F 63% 30.07 in 10.0 mi South 9.2 mph - N/A   Overcast
6:55 AM 71.6 °F - 59.0 °F 64% 30.08 in 10.0 mi SSW 6.9 mph - N/A   Overcast
7:15 AM 72.9 °F - 60.8 °F 66% 30.09 in 10.0 mi SSW 9.2 mph - N/A   Mostly Cloudy
7:35 AM 73.0 °F - 60.8 °F 65% 30.09 in 10.0 mi SSW 6.9 mph - N/A   Scattered Clouds
7:55 AM 73.4 °F - 61.5 °F 66% 30.09 in 10.0 mi SSW 9.2 mph - N/A   Mostly Cloudy
8:15 AM 74.7 °F - 62.4 °F 66% 30.09 in 10.0 mi SSW 9.2 mph - N/A   Overcast
8:35 AM 75.6 °F - 62.8 °F 64% 30.10 in 10.0 mi SSW 8.1 mph - N/A   Overcast
8:55 AM 75.4 °F - 62.4 °F 64% 30.10 in 10.0 mi South 5.8 mph - N/A   Scattered Clouds
9:15 AM 75.6 °F - 62.4 °F 64% 30.11 in 10.0 mi South 4.6 mph - N/A   Mostly Cloudy
9:35 AM 75.7 °F - 63.5 °F 66% 30.12 in 10.0 mi SW 6.9 mph - N/A   Overcast
9:55 AM 76.1 °F - 63.5 °F 65% 30.12 in 10.0 mi SW 5.8 mph - N/A   Overcast
10:15 AM 78.4 °F - 64.4 °F 62% 30.12 in 10.0 mi SSW 6.9 mph - N/A   Mostly Cloudy
10:35 AM 80.8 °F 82.6 °F 65.1 °F 59% 30.12 in 10.0 mi SW 9.2 mph - N/A   Scattered Clouds
10:55 AM 81.0 °F 82.9 °F 65.5 °F 59% 30.12 in 10.0 mi SW 11.5 mph - N/A   Mostly Cloudy
11:15 AM 80.6 °F 82.5 °F 65.5 °F 60% 30.12 in 10.0 mi SW 13.8 mph 18.4 mph N/A   Overcast
11:35 AM 79.9 °F - 66.2 °F 63% 30.12 in 10.0 mi SW 9.2 mph - N/A   Overcast
11:55 AM 80.1 °F 82.1 °F 66.2 °F 62% 30.12 in 10.0 mi SW 12.7 mph 16.1 mph N/A   Overcast
12:15 PM 79.9 °F - 66.2 °F 63% 30.12 in 10.0 mi SW 11.5 mph - N/A   Mostly Cloudy
12:35 PM 79.7 °F - 66.6 °F 64% 30.10 in 10.0 mi SW 10.4 mph - N/A   Overcast
12:55 PM 79.7 °F - 67.1 °F 65% 30.10 in 10.0 mi SSW 8.1 mph - N/A   Mostly Cloudy
1:15 PM 77.0 °F - 70.2 °F 79% 30.09 in 10.0 mi South 3.5 mph - N/A Rain Light Rain
1:35 PM 77.4 °F - 69.8 °F 77% 30.09 in 10.0 mi SSW 4.6 mph - N/A   Overcast
1:55 PM 75.4 °F - 66.0 °F 73% 30.08 in 10.0 mi NNW 5.8 mph - N/A   Overcast
2:15 PM 73.4 °F - 65.5 °F 76% 30.08 in 10.0 mi North 5.8 mph - N/A Rain Light Rain
2:35 PM 73.8 °F - 65.7 °F 76% 30.08 in 10.0 mi North 5.8 mph - N/A Rain Light Rain
2:55 PM 73.8 °F - 63.5 °F 70% 30.07 in 10.0 mi North 11.5 mph - N/A   Overcast
3:15 PM 71.2 °F - 64.2 °F 78% 30.07 in 10.0 mi North 11.5 mph - 0.01 in Rain Heavy Rain
3:35 PM 69.8 °F - 63.9 °F 81% 30.08 in 10.0 mi NNW 12.7 mph - 0.07 in   Overcast
3:55 PM 67.5 °F - 63.7 °F 88% 30.07 in 5.0 mi North 11.5 mph - 0.10 in Rain Rain
4:15 PM 67.6 °F - 64.6 °F 90% 30.09 in 5.0 mi NNW 3.5 mph - 0.08 in Rain Rain
4:35 PM 67.6 °F - 64.6 °F 90% 30.09 in 5.0 mi North 6.9 mph - 0.21 in Rain Heavy Rain
4:55 PM 67.6 °F - 64.6 °F 90% 30.09 in 7.0 mi NE 5.8 mph - 0.29 in Rain Light Rain
5:15 PM 67.5 °F - 64.6 °F 90% 30.10 in 7.0 mi ENE 4.6 mph - 0.02 in Rain Light Rain
5:35 PM 67.1 °F - 67.1 °F 100% 30.09 in 10.0 mi ENE 8.1 mph - 0.02 in   Overcast
5:55 PM 67.1 °F - 67.1 °F 100% 30.09 in 10.0 mi NE 5.8 mph - 0.02 in   Overcast
6:15 PM 66.7 °F - 66.7 °F 100% 30.09 in 10.0 mi NE 11.5 mph - N/A   Overcast
6:35 PM 66.2 °F - 65.3 °F 97% 30.09 in 10.0 mi NNE 8.1 mph - 0.01 in   Overcast
6:55 PM 65.3 °F - 63.9 °F 95% 30.12 in 10.0 mi NNE 5.8 mph - 0.01 in   Overcast
7:15 PM 63.7 °F - 61.0 °F 91% 30.11 in 10.0 mi NNE 9.2 mph - N/A   Overcast
7:35 PM 63.9 °F - 61.3 °F 91% 30.13 in 10.0 mi North 6.9 mph - N/A   Overcast
7:55 PM 64.0 °F - 60.6 °F 89% 30.13 in 10.0 mi North 8.1 mph - N/A   Overcast
8:15 PM 64.4 °F - 59.9 °F 85% 30.14 in 10.0 mi North 6.9 mph - N/A   Overcast
8:35 PM 64.4 °F - 59.7 °F 85% 30.16 in 10.0 mi North 6.9 mph - N/A   Overcast
8:55 PM 63.9 °F - 59.9 °F 87% 30.15 in 10.0 mi NNE 6.9 mph - N/A Rain Light Rain
9:15 PM 63.5 °F - 59.7 °F 87% 30.16 in 10.0 mi NNE 6.9 mph - N/A   Overcast
9:35 PM 63.0 °F - 59.9 °F 90% 30.16 in 7.0 mi North 11.5 mph 16.1 mph 0.03 in Rain Light Rain
9:55 PM 61.0 °F - 57.2 °F 87% 30.18 in 7.0 mi North 10.4 mph - 0.08 in Rain Rain
10:15 PM 60.4 °F - 57.2 °F 89% 30.17 in 10.0 mi NNE 9.2 mph - 0.04 in Rain Rain
10:35 PM 60.4 °F - 57.6 °F 90% 30.14 in 10.0 mi NNE 9.2 mph - 0.08 in Rain Light Rain
10:55 PM 59.9 °F - 57.6 °F 92% 30.12 in 10.0 mi ENE 10.4 mph 17.3 mph 0.08 in   Mostly Cloudy
11:15 PM 59.5 °F - 56.8 °F 91% 30.13 in 10.0 mi NNE 11.5 mph - N/A   Mostly Cloudy
11:55 PM 59.9 °F - 54.3 °F 82% 30.16 in 10.0 mi NE 4.6 mph - N/A Rain Light Rain